Regional Weather Roundup
Issued by NWS

Home | Current Version | Previous Version | Graphics & Text | Print | Product List | Glossary On
Versions: 1 2 3 4 5 6 7 8 9 10 11 12 13 14 15 16 17 18 19 20 21 22 23 24 25 26 27 28 29 30 31 32 33 34 35 36 37 38 39 40 41 42 43 44 45 46 47 48 49 50
000
ASUS45 KABQ 230010
RWRNM
NEW MEXICO REGIONAL WEATHER ROUNDUP
NATIONAL WEATHER SERVICE ALBUQUERQUE NM
500 PM MST SUN JAN 22 2017

NOTE: "FAIR" MEANS FEW OR NO CLOUDS BELOW 12,000 FEET AGL WITH NO
       SIGNIFICANT WEATHER OR OBSTRUCTIONS TO VISION.

      THIS PRODUCT IS RELEASED AS TWO VERSIONS.  ONE VERSION NEAR
      THE TOP OF THE HOUR CONTAINING PRELIMINARY DATA FROM ALBUQUERQUE
      AND OTHER STATIONS.  A FINAL VERSION WITH ADDITIONAL DATA IS
      ISSUED ABOUT 10 MINUTES AFTER THE HOUR.

NMZ501-503-504-510>518-230100-
NORTHWEST PLATEAU/NORTHCENTRAL MOUNTAINS

CITY           SKY/WX    TMP DP  RH WIND       PRES   REMARKS
FARMINGTON     MOCLDY    35  25  66 E8        30.07F WCI  29
6HR MIN TEMP:  31; 6HR MAX TEMP:  37;

LOS ALAMOS     FAIR      31  19  61 CALM      30.10R
SANTA FE       FAIR      36  19  50 NW7       30.08R WCI  30
6HR MIN TEMP:  35; 6HR MAX TEMP:  41;

TAOS           FAIR      32  12  43 SW12      30.07S WCI  23
ANGEL FIRE     FAIR      25  12  58 W8        30.06R WCI  16

$$
NMZ402-403-502-505>509-230100-
WESTCENTRAL MOUNTAINS/SOUTHWEST MOUNTAINS

CITY           SKY/WX    TMP DP  RH WIND       PRES   REMARKS
GALLUP         LGT SNOW  29  27  92 S3        30.11S FOG
6HR MIN TEMP:  29; 6HR MAX TEMP:  33; 6HR PCP:  0.02;

GRANTS         CLOUDY    35  25  67 S5        30.13R WCI  31
SILVER CITY    FAIR      45  28  51 W12       30.16R

$$
NMZ407-409-411-412-230100-
SOUTHERN DESERTS

CITY           SKY/WX    TMP DP  RH WIND       PRES   REMARKS
DEMING         FAIR      50  28  42 W16       30.13F
6HR MIN TEMP:  45; 6HR MAX TEMP:  51;

LAS CRUCES     FAIR      50  28  42 W10       30.15R
HOLLOMAN AFB   FAIR      50  23  34 CALM      30.14S
ALAMOGORDO     FAIR      50  19  29 NW5       30.12R
T OR C         FAIR      48  23  37 S13       30.09R
6HR MIN TEMP:  44; 6HR MAX TEMP:  51;


$$
NMZ519>523-230100-
CENTRAL VALLEYS/CENTRAL HIGHLANDS

CITY           SKY/WX    TMP DP  RH WIND       PRES   REMARKS
ALBUQUERQUE    MOCLDY    42  20  41 CALM      30.11R
6HR MIN TEMP:  36; 6HR MAX TEMP:  44;

DOUBLE EAGLE   CLOUDY    39  19  45 CALM      30.12R
MORIARTY ARPT  FAIR      39  14  36 W10       30.08S WCI  32
6HR MIN TEMP:  38; 6HR MAX TEMP:  43;

CLINES CORNERS FAIR      33  17  51 W26G35    30.03R WCI  20
6HR MIN TEMP:  31; 6HR MAX TEMP:  36;

BELEN          CLOUDY    44  17  32 CALM      30.11R
6HR MIN TEMP:  41; 6HR MAX TEMP:  47;

SOCORRO        CLOUDY    48  18  29 CALM      30.10R
6HR MIN TEMP:  45; 6HR MAX TEMP:  51;


$$
NMZ524>526-539-540-230100-
SOUTHCENTRAL MOUNTAINS

CITY           SKY/WX    TMP DP  RH WIND       PRES   REMARKS
RUIDOSO        FAIR      39  14  35 NW13      30.09R WCI  32

$$
NMZ527>531-230100-
NORTHEAST HIGHLANDS/NORTHEAST PLAINS

CITY           SKY/WX    TMP DP  RH WIND       PRES   REMARKS
LAS VEGAS      FAIR      37  21  52 SE7       29.97R WCI  32
6HR MIN TEMP:  35; 6HR MAX TEMP:  44;

RATON          FAIR      41  12  30 S10       29.92R
6HR MIN TEMP:  41; 6HR MAX TEMP:  49;

CLAYTON        FAIR      41  20  43 N6        29.95F
6HR MIN TEMP:  41; 6HR MAX TEMP:  52;


$$
NMZ532>537-230100-
EASTCENTRAL PLAINS

CITY           SKY/WX    TMP DP  RH WIND       PRES   REMARKS
TUCUMCARI      FAIR      54  10  17 S3        29.94R
6HR MIN TEMP:  52; 6HR MAX TEMP:  58;

CANNON AFB     FAIR      52  14  22 SW6       29.98R
6HR MIN TEMP:  50; 6HR MAX TEMP:  56;

CLOVIS AIRPORT FAIR      52  18  25 W9        29.98R

$$
NMZ028-029-538-230100-
SOUTHEAST PLAINS

CITY           SKY/WX    TMP DP  RH WIND       PRES   REMARKS
ROSWELL        FAIR      58  12  16 NW3       30.02R
6HR MIN TEMP:  54; 6HR MAX TEMP:  61;

ARTESIA        FAIR      55  19  24 SW13      30.03R
CARLSBAD       FAIR      56  16  20 W16       30.02R
6HR MIN TEMP:  56; 6HR MAX TEMP:  63;

HOBBS          CLEAR     55  14  19 W9        30.03R


$$




USA.gov is the U.S. government's official web portal to all federal, state and local government web resources and services.